User: anonymous   Login
Location: Unspecified
(0.0000°N, 0.0000°E)
Time: 07:42:46
(UTC+00:00)
Language:

GOES 4 - Orbit

View from above orbital plane
View from above orbital plane
View from above satellite
View from above satellite

Ground track
Ground track

The orbit data is extracted from the following two-line orbital elements,

1 11964U 80074A   17289.12271468 -.00000081  00000-0  00000+0 0  9997
2 11964  14.0548 333.5398 0031613  12.2277 353.1887  0.99227715 96219
Epoch (UTC): 16 October 2017 02:56:42
Eccentricity: 0.0031613
inclination: 14.0548°
perigee height: 35947 km
apogee height: 36215 km
right ascension of ascending node: 333.5398°
argument of perigee: 12.2277°
revolutions per day: 0.99227715
mean anomaly at epoch: 353.1887°
orbit number at epoch: 9621

The dashed part of the orbit path shows where the satellite is in the earth's shadow,  

DLR